Miscellaneous Local Product
Issued by NWS Hastings, NE

Home | Current Version | Previous Version | Graphics & Text | Print | Product List | Glossary On
Versions: 1 2 3 4 5 6 7 8 9 10 11 12 13 14 15 16 17 18 19 20 21 22 23 24 25 26 27 28 29 30 31 32 33 34 35 36 37 38 39 40 41 42 43 44 45 46 47 48 49 50
509
AXUS43 KGID 201502
MISGRI

GID CWA HOURLY WEATHER ROUNDUP
NATIONAL WEATHER SERVICE HASTINGS NE
900 AM CST MON FEB 20 2017

NOTE: "FAIR" INDICATES FEW OR NO CLOUDS BELOW 12,000 FEET WITH NO
SIGNIFICANT WEATHER AND/OR OBSTRUCTIONS TO VISIBILITY.

...SOUTH CENTRAL NEBRASKA...

CITY           SKY/WX    TMP DP  RH WIND       PRES   REMARKS
GRAND ISLAND   MOSUNNY   56  55  97 SW14      29.72R
HASTINGS       CLOUDY    56  53  90 S8        29.74R FOG
KEARNEY        CLOUDY    52  46  82 SW8       29.73F
ORD            PTSUNNY   52  47  83 W9        29.70R HAZE
YORK           CLOUDY    57  57 100 S13       29.74R FOG
AURORA         CLOUDY    55  55  99 S10G16    29.72R FOG
LEXINGTON      MOSUNNY   46  39  77 NW10      29.74R
HOLDREGE       CLOUDY    49  41  73 W8        29.74S
HEBRON         CLOUDY    58  56  91 S10       29.75R

...NEBRASKA PANHANDLE...

CITY           SKY/WX    TMP DP  RH WIND       PRES   REMARKS
CHADRON        MOSUNNY   40  29  64 W24G32    29.87R WCI  29
ALLIANCE       SUNNY     40  24  53 W16       29.86R WCI  31
SCOTTSBLUFF    SUNNY     38  22  52 NW9       29.91R WCI  31
SIDNEY         SUNNY     41  22  46 NW18      29.90R

...WESTERN AND NORTH CENTRAL NEBRASKA...

CITY           SKY/WX    TMP DP  RH WIND       PRES   REMARKS
VALENTINE      LGT RAIN  46  38  73 NW21G30   29.73R
AINSWORTH      CLOUDY    47  40  78 NW17G24   29.73R
ONEILL         CLOUDY    53  50  89 SW9       29.67S
BROKEN BOW     PTSUNNY   48  40  73 NW9       29.73R
IMPERIAL       SUNNY     47  19  33 NW24G35   29.84R
NORTH PLATTE   CLOUDY    49  29  46 NW20G28   29.79R
MCCOOK         MOSUNNY   51  30  44 W20G29    29.79R

...EASTERN NEBRASKA...

CITY           SKY/WX    TMP DP  RH WIND       PRES   REMARKS
NORFOLK        CLOUDY    57  54  89 S12       29.68F
SO SIOUX CITY  CLOUDY    57  56  96 S15       29.71F FOG
TEKAMAH        CLOUDY    57  55  93 SE12      29.72F FOG
COLUMBUS       CLOUDY    57  54  88 S13       29.71S
ALBION         CLOUDY    56  53  91 S6        29.70S FOG
OMAHA EPPLEY   LGT RAIN  58  55  90 S12       29.75F FOG
MILLARD        DRIZZLE   59  58  95 SE8       29.75F
LINCOLN        CLOUDY    59  57  93 S14       29.73F
NEBRASKA CITY  DRIZZLE   57  57 100 S5        29.77F
BEATRICE       CLOUDY    58  57  96 S9        29.75F
FALLS CITY     LGT RAIN  59  56  89 S9        29.78F

...NORTHERN KANSAS...

CITY           SKY/WX    TMP DP  RH WIND       PRES   REMARKS
GOODLAND       SUNNY     48  19  31 NW22      29.88R
HILL CITY      CLOUDY    53  37  54 NW13G21   29.79R
NORTON         SUNNY     48  34  57 W14       29.78R
SMITH CENTER   SUNNY     52  52 100 S7        29.77R FOG
HAYS           CLOUDY    49  44  83 W7        29.79R
RUSSELL        PTSUNNY   53  52  96 SW10      29.76R
CONCORDIA      CLOUDY    58  57  97 S13       29.77R
SALINA         CLOUDY    59  56  89 S12       29.79R
TOPEKA         LGT RAIN  61  56  83 SE7       29.80S



USA.gov is the U.S. government's official web portal to all federal, state and local government web resources and services.